Wetterdaten: aktuell Sonntag, 20.01.2019 12:00
Datum Zeit Temp. 2m rel. Feuchte Luftdruck Regen Wind Richtung Richtung Sonne ET UV-Index Solar Taupunkt Ben
20.01.2019 12:00 0,2 C 71 % 1017,6 hPa 0,0 mm 2,2 km/h (1 Bft) S 170 60 min 0,1 mm 0,3 UV-I 334 W/m -4,4 C 6,7 km/h (2 Bft)
20.01.2019 11:00 -1,8 C 80 % 1017,4 hPa 0,0 mm 4,3 km/h (1 Bft) S-SO 167 60 min 0,0 mm 0,0 UV-I 272 W/m -4,8 C 17,8 km/h (3 Bft)
20.01.2019 10:00 -3,6 C 86 % 1016,8 hPa 0,0 mm 0,1 km/h (0 Bft) S 173 55 min 0,0 mm 0,0 UV-I 113 W/m -5,6 C 2,2 km/h (1 Bft)
20.01.2019 09:00 -5,4 C 88 % 1016,2 hPa 0,0 mm 0,0 km/h (0 Bft) S 172 5 min 0,0 mm 0,0 UV-I 25 W/m -7,1 C 0,0 km/h (0 Bft)
20.01.2019 08:00 -5,0 C 86 % 1015,7 hPa 0,0 mm 0,0 km/h (0 Bft) O-SO 115 0 min 0,0 mm 0,0 UV-I 0 W/m -7,0 C 0,0 km/h (0 Bft)
20.01.2019 07:00 -4,5 C 85 % 1014,9 hPa 0,0 mm 0,0 km/h (0 Bft) O-SO 115 0 min 0,0 mm 0,0 UV-I 0 W/m -6,6 C 0,0 km/h (0 Bft)
20.01.2019 06:00 -3,8 C 83 % 1014,7 hPa 0,0 mm 0,0 km/h (0 Bft) O-SO 115 0 min 0,0 mm 0,0 UV-I 0 W/m -6,3 C 0,0 km/h (0 Bft)
20.01.2019 05:00 -3,5 C 84 % 1014,6 hPa 0,0 mm 3,2 km/h (1 Bft) O-SO 112 0 min 0,0 mm 0,0 UV-I 0 W/m -5,8 C 6,7 km/h (2 Bft)
20.01.2019 04:00 -3,9 C 85 % 1014,7 hPa 0,0 mm 0,3 km/h (0 Bft) O-SO 114 0 min 0,0 mm 0,0 UV-I 0 W/m -6,0 C 2,2 km/h (1 Bft)
20.01.2019 03:00 -3,0 C 83 % 1014,7 hPa 0,0 mm 0,0 km/h (0 Bft) O-SO 114 0 min 0,0 mm 0,0 UV-I 0 W/m -5,5 C 0,0 km/h (0 Bft)
20.01.2019 02:00 -3,0 C 84 % 1014,6 hPa 0,0 mm 0,5 km/h (0 Bft) SO 124 0 min 0,0 mm 0,0 UV-I 0 W/m -5,3 C 2,2 km/h (1 Bft)
20.01.2019 01:00 -2,2 C 82 % 1014,6 hPa 0,0 mm 0,0 km/h (0 Bft) SO 124 0 min 0,0 mm 0,0 UV-I 0 W/m -4,8 C 2,2 km/h (1 Bft)
20.01.2019 00:00 -1,7 C 80 % 1014,6 hPa 0,0 mm 1,2 km/h (1 Bft) SO 127 0 min 0,0 mm 0,0 UV-I 0 W/m -4,7 C 4,4 km/h (1 Bft)
19.01.2019 23:00 -1,2 C 80 % 1014,6 hPa 0,0 mm 2,8 km/h (1 Bft) O 93 0 min 0,0 mm 0,0 UV-I 0 W/m -4,2 C 6,7 km/h (2 Bft)
19.01.2019 22:00 -0,9 C 80 % 1014,5 hPa 0,0 mm 4,1 km/h (1 Bft) SO 130 0 min 0,0 mm 0,0 UV-I 0 W/m -3,9 C 8,9 km/h (2 Bft)
19.01.2019 21:00 -0,6 C 80 % 1014,3 hPa 0,0 mm 3,7 km/h (1 Bft) O-SO 110 0 min 0,0 mm 0,0 UV-I 0 W/m -3,6 C 8,9 km/h (2 Bft)
19.01.2019 20:00 -0,3 C 79 % 1014,4 hPa 0,0 mm 3,1 km/h (1 Bft) O-SO 110 0 min 0,0 mm 0,0 UV-I 0 W/m -3,5 C 11,1 km/h (2 Bft)
19.01.2019 19:00 0,3 C 78 % 1014,2 hPa 0,0 mm 1,5 km/h (1 Bft) O-SO 121 0 min 0,0 mm 0,0 UV-I 0 W/m -3,1 C 4,4 km/h (1 Bft)
19.01.2019 18:00 0,9 C 74 % 1014,4 hPa 0,0 mm 3,3 km/h (1 Bft) O 79 0 min 0,0 mm 0,0 UV-I 0 W/m -3,2 C 8,9 km/h (2 Bft)
19.01.2019 17:00 2,0 C 64 % 1014,5 hPa 0,0 mm 5,8 km/h (2 Bft) O-SO 109 25 min 0,0 mm 0,0 UV-I 9 W/m -4,1 C 11,1 km/h (2 Bft)
19.01.2019 16:00 3,1 C 62 % 1014,8 hPa 0,0 mm 4,1 km/h (1 Bft) O-SO 116 60 min 0,1 mm 0,2 UV-I 96 W/m -3,5 C 13,3 km/h (3 Bft)
19.01.2019 15:00 4,5 C 59 % 1015,1 hPa 0,0 mm 5,3 km/h (1 Bft) SO 135 60 min 0,1 mm 0,7 UV-I 211 W/m -2,8 C 11,1 km/h (2 Bft)
19.01.2019 14:00 3,4 C 66 % 1015,6 hPa 0,0 mm 9,4 km/h (2 Bft) SO 128 50 min 0,1 mm 0,6 UV-I 268 W/m -2,3 C 22,2 km/h (4 Bft)
19.01.2019 13:00 3,1 C 69 % 1016,4 hPa 0,0 mm 9,4 km/h (2 Bft) SO 129 0 min 0,1 mm 0,8 UV-I 338 W/m -2,0 C 24,4 km/h (4 Bft)
_ Min-Zeit 08:40 15:00 18:25 - 00:50 - - - - - - 08:40 00:50
Minimum _ -5,4 C 59 % 1014,2 hPa - 0,0 km/h (0 Bft) - - - - - - -7,2 C 0,0 km/h (0 Bft)
_ Max-Zeit 14:40 09:15 11:50 13:00 13:20 - - 13:00 13:00 13:00 13:00 14:20 13:05
Maximum _ 4,7 C 89 % 1017,7 hPa 0,0 mm 11,6 km/h
O (2 Bft)
- - 5 min 0,1 mm 0,8 UV-I 338 W/m -1,9 C 31,1 km/h
SO (5 Bft)
Durchschnitt _ -0,9 C 77 % 1015,2 hPa #0,0 mm 3,0 km/h (1 Bft) O-SO - #3:00 h #0,152 mm 0,3 UV-I 173 W/m -4,4 C 8,6 km/h (2 Bft)



© 1998 - 2019 www.pulheimwetter.de